Regional Weather Roundup
Issued by NWS

Home | Current Version | Previous Version | Text Only | Print | Product List | Glossary Off
Versions: 1 2 3 4 5 6 7 8 9 10 11 12 13 14 15 16 17 18 19 20 21 22 23 24 25 26 27

000
ASUS45 KTFX 190510
RWRMT
MONTANA REGIONAL WEATHER ROUNDUP
NATIONAL WEATHER SERVICE GREAT FALLS MT
1000 PM MST SAT NOV 18 2017

NOTE: "FAIR" INDICATES FEW OR NO CLOUDS BELOW 12000 FEET WITH NO
SIGNIFICANT WEATHER AND/OR OBSTRUCTIONS TO VISIBILITY.

MTZ001>007-043-190600-
WEST OF THE DIVIDE

CITY           SKY/WX    TMP DP  RH WIND       PRES   REMARKS
KALISPELL      FAIR      26  23  88 S3        30.14F
MISSOULA       FAIR      29  23  78 CALM      30.18S
BUTTE          FAIR      13   6  74 S3        30.16F
MULLAN PASS    FAIR      22  18  85 VRB7      30.07F WCI  13
ANACONDA         N/A     30  12  47 S12G18    30.13F WCI  21
EUREKA           N/A     37  25  60 MISG      30.14S
HAMILTON         N/A     34  18  51 CALM      30.17R
LIBBY            N/A     27  25  93 CALM      30.14F
RONAN            N/A     28  23  81 CALM      30.17F
$$

MTZ008-052>055-190600-
SOUTHWEST MONTANA

CITY           SKY/WX    TMP DP  RH WIND       PRES   REMARKS
BOZEMAN        FAIR      17  11  77 SE3       30.16S
DILLON         FAIR      24  13  62 SW7       30.20S WCI  16
W YELLOWSTONE  MOCLDY    21  16  79 VRB5      30.29F
ENNIS          CLOUDY    28  16  59 S20G26    30.26F WCI  15
$$

MTZ009-010-012-014-046-048-049-054-190600-
EAST SLOPES AND CENTRAL MONTANA

CITY           SKY/WX    TMP DP  RH WIND       PRES   REMARKS
CUT BANK       FAIR      32  18  56 SW17      29.96F WCI  21
GREAT FALLS    FAIR      36  15  42 SW15      30.01S WCI  27
MALMSTROM AFB  FAIR      39  14  36 SW25G37   30.00F WCI  28
HELENA         FAIR      29  21  72 S6        30.12F WCI  23
BOWMANS CRNR   FAIR      31  16  54 SW20      30.03F WCI  19
CHOTEAU          N/A     34  16  47 S9        30.03S WCI  26
FAIRFIELD      FAIR      35  17  48 S22G29    30.01R WCI  23
POWER          FAIR      36  16  45 SW18      29.98F WCI  25
RAYNESFORD     FAIR      40  10  29 SW20      29.99F
ULM            MOCLDY    38  13  34 SW14      30.03F WCI  30
$$

MTZ011-013-016-021-045-047-050-051-190600-
NORTH CENTRAL MONTANA

CITY           SKY/WX    TMP DP  RH WIND       PRES   REMARKS
HAVRE          FAIR      35  23  61 SW16      29.95F WCI  25
LEWISTOWN      FAIR      33  16  49 SW15      30.01F WCI  23
N BAR RANCH    FAIR      27  16  63 NW3       30.03F
CHINOOK          N/A     32  21  64 NW5       29.95F
DENTON         FAIR      36  16  43 SW14      29.97F WCI  27
GEYSER         FAIR      33  15  47 NW5       30.00S
GRASS RANGE    FAIR      34  16  48 SW3       29.97F
STANFORD       FAIR      35  12  38 N5        30.00S
WINIFRED       FAIR      34  18  51 SW9       29.99F WCI  27
$$

MTZ017>020-022>027-061-062-190600-
NORTHEAST MONTANA

CITY           SKY/WX    TMP DP  RH WIND       PRES   REMARKS
GLASGOW        FAIR      28  21  75 E3        29.98F
GLENDIVE       FAIR      26  20  77 W10       30.05S WCI  16
JORDAN           N/A     29  22  75 CALM      30.02S
SIDNEY         FAIR      29  21  72 W12       30.02F WCI  19
WOLF POINT     FAIR      22  16  78 W3        30.01F
MALTA          CLEAR     19  18  93 CALM      29.98F
PLENTYWOOD       N/A     23  18  80 CALM      29.96F
POPLAR           N/A     27  19  74 CALM      30.01F
$$

MTZ028>42-056>058-190600-
SOUTHCENTRAL AND SOUTHEAST MONTANA

CITY           SKY/WX    TMP DP  RH WIND       PRES   REMARKS
BAKER          FAIR      30  22  72 SW12      30.06F WCI  20
BILLINGS       FAIR      36  19  50 W15       30.06F WCI  27
LIVINGSTON     FAIR      34  17  50 SW30G55   30.07F WCI  20
MILES CITY     FAIR      31  23  72 W3        30.06S
BIG TIMBER     CLEAR     36  14  41 W22G32    30.11R WCI  24
EKALAKA          N/A     33  17  52 S2        30.03F
FORSYTH          N/A     37  19  48 CALM      30.06S
HARLOWTON      FAIR      33  19  55 NW25G32   30.06R WCI  20
LAUREL           N/A     37  18  44 SW15G21   30.09R WCI  28
$$

REGIONAL REPORTS...DAKOTAS

CITY           SKY/WX    TMP DP  RH WIND       PRES   REMARKS
WILLISTON      FAIR      26  19  74 W9        30.00S WCI  17
MINOT          FAIR      24  17  74 SW8       29.98S WCI  15
DICKINSON      FAIR      24  19  81 W10       30.01R WCI  14
BEACH          FAIR      28  21  74 SW8       30.06S WCI  20
CROSBY         FAIR      18  16  93 SW13      29.96F WCI   4
TIOGA          FAIR      19  19 100 W6        29.98F WCI  11
BISMARCK       FAIR      23  17  78 W3        30.06S
GRAND FORKS    FAIR      13   7  77 W7        30.04S WCI   3
FARGO          FAIR      15  10  80 W10       30.07R WCI   2
BUFFALO SD       N/A     28  20  71 W9        30.01F WCI  19
RAPID CITY     FAIR      26  17  68 CALM      30.14F
$$

REGIONAL REPORTS...WYOMING/IDAHO/WASHINGTON

CITY           SKY/WX    TMP DP  RH WIND       PRES   REMARKS
GILLETTE       FAIR      29  17  61 SW12      30.11S WCI  19
SHERIDAN       FAIR      23  18  81 S3        30.09F
BUFFALO WY     FAIR      27  12  53 S8        30.11R WCI  19
CODY           FAIR      35  13  40 SW31      30.12F WCI  22
YELLOWSTONE LA   N/A     16  12  84 W3        30.29F
IDAHO FALLS    FAIR      25  22  88 CALM      30.35S
SALMON         FAIR      25  19  78 VRB5      30.27F
BOISE          FAIR      35  23  61 S8        30.27S WCI  29
SPOKANE        MOCLDY    34  31  88 CALM      30.14S
$$

REGIONAL REPORTS...ALBERTA

CITY           SKY/WX    TMP DP  RH WIND       PRES   REMARKS
EDMONTON       MOCLDY    27  19  74 SW2       29.76S
CALGARY        MOCLDY    36  16  44 SW8       29.80F WCI  29
LETHBRIDGE     PTCLDY    36  21  55 W24       29.90S WCI  24
MEDICINE HAT   PTCLDY    32  23  69 SW15G21   29.88F WCI  22
$$

REGIONAL REPORTS...SASKATCHEWAN

CITY           SKY/WX    TMP DP  RH WIND       PRES   REMARKS
SWIFT CURRENT  CLOUDY    32  23  69 W24G30    29.83F WCI  19
REGINA         MOCLDY     7   5  92 SE8       29.88F WCI  -6
SASKATOON      CLOUDY    10   7  85 SW7       29.84F WCI   0
$$




USA.gov is the U.S. government's official web portal to all federal, state and local government web resources and services.